TimeEST,TemperatureF,Dew PointF,Humidity,Sea Level PressureIn,VisibilityMPH,Wind Direction,Wind SpeedMPH,Gust SpeedMPH,PrecipitationIn,Events,Conditions,WindDirDegrees,DateUTC
12:54 AM,55.9,54.0,93,30.22,10.0,Calm,Calm,-,0.00,Rain,Light Rain,0,2011-11-21 05:54:00
1:54 AM,54.0,53.1,97,30.21,8.0,Calm,Calm,-,0.01,,Overcast,0,2011-11-21 06:54:00
2:54 AM,54.0,53.1,97,30.21,9.0,Calm,Calm,-,N/A,,Clear,0,2011-11-21 07:54:00
3:54 AM,53.1,52.0,96,30.22,4.0,Calm,Calm,-,N/A,,Clear,0,2011-11-21 08:54:00
4:54 AM,51.1,50.0,96,30.23,2.5,NNW,4.6,-,N/A,,Clear,340,2011-11-21 09:54:00
5:00 AM,51.8,51.8,100,30.26,1.8,Calm,Calm,-,N/A,,Partly Cloudy,0,2011-11-21 10:00:00
5:12 AM,51.8,51.8,100,30.27,1.0,Calm,Calm,-,N/A,,Mist,0,2011-11-21 10:12:00
5:19 AM,51.8,50.0,94,30.27,0.5,Calm,Calm,-,N/A,Fog,Fog,0,2011-11-21 10:19:00
5:48 AM,51.8,50.0,94,30.27,1.5,Calm,Calm,-,N/A,,Overcast,0,2011-11-21 10:48:00
5:54 AM,50.0,48.9,96,30.25,1.8,Calm,Calm,-,N/A,,Mostly Cloudy,0,2011-11-21 10:54:00
5:58 AM,50.0,50.0,100,30.28,3.0,Calm,Calm,-,N/A,,Mostly Cloudy,0,2011-11-21 10:58:00
6:04 AM,50.0,50.0,100,30.28,2.5,Calm,Calm,-,N/A,,Scattered Clouds,0,2011-11-21 11:04:00
6:07 AM,48.2,48.2,100,30.28,1.2,Calm,Calm,-,N/A,,Scattered Clouds,0,2011-11-21 11:07:00
6:09 AM,48.2,48.2,100,30.28,1.0,Calm,Calm,-,N/A,,Mist,0,2011-11-21 11:09:00
6:16 AM,50.0,48.2,94,30.29,0.8,Calm,Calm,-,N/A,,Mist,0,2011-11-21 11:16:00
6:25 AM,48.2,48.2,100,30.29,0.5,Calm,Calm,-,N/A,Fog,Fog,0,2011-11-21 11:25:00
6:50 AM,48.2,48.2,100,30.30,1.8,Calm,Calm,-,N/A,,Mostly Cloudy,0,2011-11-21 11:50:00
6:54 AM,48.9,48.0,97,30.27,2.5,Calm,Calm,-,N/A,,Mostly Cloudy,0,2011-11-21 11:54:00
6:59 AM,48.2,48.2,100,30.30,1.2,Calm,Calm,-,N/A,,Mostly Cloudy,0,2011-11-21 11:59:00
7:10 AM,48.2,48.2,100,30.30,0.5,Calm,Calm,-,N/A,Fog,Fog,0,2011-11-21 12:10:00
7:25 AM,48.2,48.2,100,30.30,0.2,Calm,Calm,-,N/A,Fog,Fog,0,2011-11-21 12:25:00
7:34 AM,46.4,46.4,100,30.30,0.5,Calm,Calm,-,N/A,Fog,Fog,0,2011-11-21 12:34:00
7:42 AM,48.2,48.2,100,30.30,1.2,Calm,Calm,-,N/A,,Scattered Clouds,0,2011-11-21 12:42:00
7:45 AM,48.2,48.2,100,30.30,2.0,Calm,Calm,-,N/A,,Scattered Clouds,0,2011-11-21 12:45:00
7:54 AM,48.9,48.9,100,30.28,4.0,NNW,4.6,-,N/A,,Partly Cloudy,340,2011-11-21 12:54:00
8:54 AM,50.0,50.0,100,30.29,6.0,Calm,Calm,-,N/A,,Partly Cloudy,0,2011-11-21 13:54:00
9:54 AM,55.9,54.0,93,30.28,10.0,North,3.5,-,N/A,,Clear,350,2011-11-21 14:54:00
10:54 AM,64.0,57.0,78,30.26,10.0,North,8.1,-,N/A,,Clear,350,2011-11-21 15:54:00
11:54 AM,69.1,57.0,65,30.23,10.0,North,4.6,-,N/A,,Clear,350,2011-11-21 16:54:00
12:54 PM,70.0,55.9,61,30.20,10.0,NNW,5.8,-,N/A,,Clear,340,2011-11-21 17:54:00
1:54 PM,69.1,55.9,63,30.19,10.0,North,9.2,-,N/A,,Mostly Cloudy,350,2011-11-21 18:54:00
2:47 PM,57.2,55.4,94,30.27,1.8,NNW,24.2,31.1,0.07,Rain,Heavy Rain,340,2011-11-21 19:47:00
2:54 PM,57.9,55.9,93,30.25,1.2,NNW,17.3,29.9,0.17,Rain,Heavy Rain,340,2011-11-21 19:54:00
3:00 PM,57.2,55.4,94,30.28,2.0,North,13.8,23.0,0.04,Rain,Heavy Rain,350,2011-11-21 20:00:00
3:16 PM,57.2,55.4,94,30.27,5.0,North,9.2,-,0.09,Rain,Light Rain,360,2011-11-21 20:16:00
3:54 PM,57.9,55.0,90,30.22,10.0,North,11.5,18.4,0.12,Rain,Light Rain,350,2011-11-21 20:54:00
4:54 PM,57.0,55.0,93,30.24,10.0,Calm,Calm,-,0.00,,Scattered Clouds,0,2011-11-21 21:54:00
5:54 PM,57.9,55.0,90,30.24,10.0,North,3.5,-,N/A,,Overcast,350,2011-11-21 22:54:00
6:54 PM,55.9,55.0,97,30.22,10.0,Calm,Calm,-,N/A,,Overcast,0,2011-11-21 23:54:00
7:54 PM,55.9,55.0,97,30.22,10.0,SSW,3.5,-,N/A,,Scattered Clouds,200,2011-11-22 00:54:00
8:54 PM,55.9,55.0,97,30.22,10.0,Calm,Calm,-,N/A,,Overcast,0,2011-11-22 01:54:00
9:54 PM,55.4,53.6,94,30.24,10.0,East,3.5,-,N/A,,Partly Cloudy,100,2011-11-22 02:54:00
10:54 PM,55.9,54.0,93,30.20,10.0,Calm,Calm,-,N/A,,Overcast,0,2011-11-22 03:54:00
11:32 PM,55.4,53.6,94,30.24,10.0,Calm,Calm,-,N/A,,Scattered Clouds,0,2011-11-22 04:32:00
11:54 PM,54.0,54.0,100,30.20,10.0,Calm,Calm,-,N/A,,Partly Cloudy,0,2011-11-22 04:54:00